Вернуться в каталог

DELTA 1 DEB

АктивенLEO
NORAD 14883·DEBRIS·🇺🇸 United States

Запущен Nov 6, 1973 с Vandenberg Space Force Base

Loading…

Ближайшие Пролёты (ближайшие 24 часа)

TLE

СвежийSource: Space-Track

Эпоха: Sep 13, 2026, 08:16 UTC

1 14883U 73086GS  26256.34452105  .00000242  00000-0  31732-2 0  9999
2 14883 101.9888  92.3322 0249130   2.3449 172.8456 12.00258957638170

Отслеживайте DELTA 1 DEB в реальном времени с AllMySat

Download on the App Store